Hourly Weather Roundup
Issued by NWS Central Illinois

Home | Current Version | Previous Version | Text Only | Print | Product List | Glossary On
Versions: 1 2 3 4 5 6 7 8 9 10 11 12 13 14 15 16 17 18 19 20 21 22 23 24 25 26 27 28 29 30 31 32 33 34 35 36 37 38 39 40 41 42 43 44 45 46 47 48 49 50
000
NZUS43 KILX 250210
HWRILX

AREA WEATHER ROUNDUP
NATIONAL WEATHER SERVICE, LINCOLN IL
800 PM CST WED DEC 24 2014


CITY           SKY/WX    TMP DP  RH WIND       PRES   REMARKS
BLOOMINGTON    LGT RAIN  36  34  92 W10       29.68R WCI  28
CHAMPAIGN      CLOUDY    36  33  89 W16       29.68R WCI  26
DECATUR        CLOUDY    37  33  85 W13       29.72R WCI  29
FLORA          MOCLDY    37  34  87 W14       29.79R WCI  29
GALESBURG      CLOUDY    35  33  90 W16       29.70R WCI  25
JACKSONVILLE   CLOUDY    38  33  82 W15       29.76R WCI  30
LACON          CLOUDY    37  32  84 W10G17    29.66R WCI  29
LAWRENCEVILLE  CLOUDY    39  36  89 W10       29.76R WCI  32
LITCHFIELD     CLOUDY    36  32  87 W10       29.76S WCI  28
$$


CITY           SKY/WX    TMP DP  RH WIND       PRES   REMARKS
LINCOLN        CLOUDY    38  34  86 W9        29.71R WCI  31
MACOMB         CLOUDY    36  32  85 W17       29.74S WCI  26
MATTOON        CLOUDY    36  34  92 W10       29.71R WCI  28
MT CARMEL AP   CLOUDY    41  36  81 W13       29.77R WCI  34
OLNEY-NOBLE AP CLOUDY    36  34  93 W10G17    29.78R WCI  28
PARIS          CLOUDY    37  35  94 W13       29.71R WCI  28
PEORIA         CLOUDY    38  33  82 W9        29.69R WCI  31
PONTIAC        CLOUDY    37  35  92 W14       29.65R WCI  28
RANTOUL        CLOUDY    37  35  90 W14       29.66R WCI  29
ROBINSON       CLOUDY    38  35  87 W21       29.76R WCI  28
SPRINGFIELD    CLOUDY    37  34  89 W14       29.74R WCI  28
TAYLORVILLE    CLOUDY    36  34  93 W12G18    29.74R WCI  27
$$

...REGIONAL REPORTS...


CITY           SKY/WX    TMP DP  RH WIND       PRES   REMARKS
CHICAGO O`HARE DRIZZLE   36  32  85 W14       29.54R WCI  27
KANKAKEE       CLOUDY    36  34  93 W15       29.61R WCI  26
MOLINE         CLOUDY    37  30  75 W13G22    29.68R WCI  29
MOUNT VERNON   CLOUDY    37  32  81 W6        29.81R WCI  33
PITTSFIELD     CLOUDY    38  32  78 W12G17    29.78R WCI  30
QUINCY         CLOUDY    36  30  79 W12       29.76R WCI  28
ROCKFORD       LGT RAIN  35  32  88 NW12      29.61R WCI  27
$$


CITY           SKY/WX    TMP DP  RH WIND       PRES   REMARKS
BURLINGTON     CLOUDY    37  30  75 NW13G18   29.73R WCI  29
CEDAR RAPIDS   CLOUDY    32  30  92 W13       29.69R WCI  22
DES MOINES     FLURRIES  33  28  81 W15       29.74F WCI  23
KIRKSVILLE     CLOUDY    34  31  88 W15G22    29.79R WCI  24
OTTUMWA        CLOUDY    34  29  82 W12       29.75R WCI  25
ST LOUIS       CLOUDY    39  33  79 W10       29.81R WCI  32
$$


CITY           SKY/WX    TMP DP  RH WIND       PRES   REMARKS
TERRE HAUTE    CLOUDY    38  34  85 W14       29.71R WCI  30
EVANSVILLE     CLOUDY    41  35  79 W13       29.80R WCI  34
INDIANAPOLIS   FLURRIES  36  34  92 W21G26    29.66R WCI  25
LAFAYETTE      CLOUDY    36  34  92 W10       29.63R WCI  28
MADISON        CLOUDY    35  31  85 W9        29.55R WCI  28
MILWAUKEE      LGT RAIN  36  32  85 W10       29.51S WCI  28
$$





USA.gov is the U.S. government's official web portal to all federal, state and local government web resources and services.